DG5TKE Weather Reports


time (UTC)temp
C
wind
direction
speed
KPH
gust
KPH
rain 1hr
cm
rain 24hr
cm
rain mn
cm
humidity
%
barometer
mb
20260505130221 18 50 6.4 14.5 0.00 0.33 0.08 79 1005.4
20260505125003 17 42 6.4 17.7 0.00 0.33 0.08 78 1005.5
20260505124217 17 35 6.4 14.5 0.00 0.33 0.08 79 1005.7
20260505123003 17 39 6.4 17.7 0.00 0.33 0.08 78 1005.8
20260505122003 17 38 6.4 14.5 0.00 0.33 0.08 80 1005.9
20260505121003 17 19 6.4 14.5 0.00 0.33 0.08 80 1006.0
20260505120217 17 32 8.0 14.5 0.00 0.33 0.08 80 1006.0
20260505115217 17 46 6.4 14.5 0.00 0.33 0.08 80 1006.1
20260505114003 16 73 4.8 14.5 0.00 0.33 0.08 81 1006.1
20260505113006 16 53 6.4 12.9 0.00 0.33 0.08 82 1006.2
20260505112003 16 51 4.8 12.9 0.00 0.33 0.08 85 1006.2
20260505111003 16 64 4.8 12.9 0.00 0.33 0.08 88 1006.3
20260505102003 14 23 3.2 6.4 0.00 0.33 0.08 94 1006.7
20260505101003 14 27 1.6 8.0 0.00 0.33 0.08 95 1006.8
20260505100003 14 0 0.0 4.8 0.00 0.33 0.08 95 1006.9
20260505095003 14 0 0.0 0.0 0.00 0.33 0.08 95 1007.0
20260505094006 13 0 0.0 0.0 0.00 0.33 0.08 95 1007.0
20260505093004 13 0 0.0 0.0 0.00 0.33 0.08 95 1007.1
20260505092003 13 0 0.0 0.0 0.00 0.33 0.08 95 1007.2
20260505091006 13 0 0.0 0.0 0.00 0.33 0.08 95 1007.2
20260505090003 13 0 0.0 0.0 0.00 0.33 0.08 95 1007.3
20260505085003 13 0 0.0 0.0 0.00 0.33 0.08 95 1007.4
20260505084003 13 0 0.0 0.0 0.00 0.33 0.08 95 1007.4
20260505083003 13 0 0.0 0.0 0.00 0.33 0.08 95 1007.4
20260505082006 13 75 1.6 3.2 0.00 0.33 0.08 95 1007.2
20260505081003 13 68 0.0 3.2 0.00 0.33 0.08 95 1007.2
20260505080003 13 0 0.0 3.2 0.00 0.33 0.08 95 1007.1
20260505075003 13 0 0.0 0.0 0.00 0.33 0.08 95 1007.1
20260505074003 13 0 0.0 0.0 0.00 0.33 0.08 95 1007.1
20260505073003 13 0 0.0 0.0 0.00 0.33 0.08 96 1007.0
20260505072003 13 0 0.0 0.0 0.00 0.33 0.08 96 1007.1
20260505071006 13 0 0.0 0.0 0.00 0.33 0.08 95 1007.1
20260505070003 13 292 1.6 6.4 0.00 0.33 0.08 95 1007.1
20260505065003 13 308 1.6 4.8 0.00 0.33 0.08 95 1007.2
20260505064006 13 289 1.6 4.8 0.00 0.33 0.08 95 1007.3
20260505063003 12 0 0.0 3.2 0.00 0.33 0.08 95 1007.2
20260505062003 12 0 0.0 1.6 0.03 0.33 0.08 95 1007.2
20260505061003 12 0 0.0 3.2 0.03 0.33 0.08 95 1007.1
20260505060003 12 0 0.0 0.0 0.03 0.33 0.08 95 1006.9
20260505055003 12 0 0.0 0.0 0.03 0.33 0.08 95 1007.0
20260505054216 12 0 0.0 0.0 0.03 0.33 0.08 95 1007.2
20260505053003 12 0 0.0 0.0 0.03 0.33 0.08 95 1007.5
20260505052003 12 0 0.0 0.0 0.00 0.33 0.05 95 1007.5
20260505051218 12 0 0.0 0.0 0.03 0.33 0.05 95 1007.6
20260505041006 12 0 0.0 0.0 0.00 0.30 0.05 94 1007.8
20260505040004 12 0 0.0 0.0 0.03 0.30 0.05 94 1007.9
20260505035218 12 0 0.0 0.0 0.03 0.30 0.05 94 1007.9
20260505034218 12 0 0.0 0.0 0.03 0.30 0.05 94 1008.0
20260505033003 12 0 0.0 0.0 0.03 0.30 0.05 94 1008.2
20260505032006 12 0 0.0 0.0 0.03 0.30 0.05 94 1008.2
20260505031003 12 0 0.0 0.0 0.03 0.30 0.05 94 1008.3
20260505030003 12 0 0.0 0.0 0.00 0.28 0.03 94 1008.3
20260505025004 12 0 0.0 0.0 0.00 0.28 0.03 94 1008.4
20260505024217 12 0 0.0 0.0 0.00 0.28 0.03 94 1008.5
20260505023003 12 0 0.0 0.0 0.00 0.28 0.03 94 1008.4
20260505022003 12 0 0.0 1.6 0.00 0.28 0.03 94 1008.5
20260505021003 12 295 1.6 3.2 0.00 0.28 0.03 94 1008.5
20260505020217 12 289 0.0 6.4 0.00 0.28 0.03 94 1008.5
20260505015003 12 0 0.0 0.0 0.00 0.28 0.03 94 1008.4
20260505014003 12 0 0.0 0.0 0.03 0.28 0.03 94 1008.3
20260505013217 12 0 0.0 0.0 0.03 0.28 0.03 94 1008.4
20260505012007 12 0 0.0 0.0 0.03 0.28 0.03 94 1008.4
20260505011003 12 313 1.6 4.8 0.03 0.28 0.03 94 1008.5
20260505010003 12 343 0.0 3.2 0.03 0.28 0.03 94 1008.6
20260505005004 12 0 0.0 3.2 0.03 0.28 0.03 94 1008.8
20260505004003 12 343 0.0 1.6 0.00 0.25 0.00 94 1008.9
20260505003216 12 343 0.0 3.2 0.00 0.25 0.00 94 1009.0
20260505002003 12 19 1.6 3.2 0.00 0.25 0.00 93 1009.2
20260505001006 12 332 3.2 6.4 0.00 0.25 0.00 93 1009.2
20260505000003 12 248 0.0 6.4 0.00 0.25 0.00 93 1009.2
20260504235003 12 0 0.0 0.0 0.00 0.25 0.00 93 1009.3
20260504234003 12 292 1.6 3.2 0.00 0.25 0.00 93 1009.4
20260504233003 12 290 0.0 4.8 0.00 0.25 0.00 93 1009.5
20260504232003 12 0 0.0 0.0 0.00 0.25 0.00 93 1009.5
20260504231003 13 0 0.0 1.6 0.00 0.25 0.00 92 1009.6
20260504230003 13 308 1.6 1.6 0.00 0.25 0.00 92 1009.6
20260504225003 13 0 0.0 4.8 0.00 0.25 0.00 92 1009.6
20260504224003 13 0 0.0 0.0 0.00 0.25 0.00 92 1009.7
20260504223003 13 0 0.0 0.0 0.00 0.25 0.00 92 1009.8
20260504222003 13 0 0.0 3.2 0.00 0.25 0.00 92 1009.8
20260504221003 13 0 0.0 0.0 0.00 0.25 0.00 92 1009.7
20260504220003 13 74 1.6 3.2 0.00 0.25 0.00 92 1009.8
20260504215003 13 299 3.2 6.4 0.00 0.25 0.25 92 1009.8
20260504214006 13 307 6.4 16.1 0.00 0.25 0.25 92 1009.7
20260504213003 13 294 4.8 14.5 0.00 0.25 0.25 92 1009.8
20260504212003 13 290 1.6 12.9 0.00 0.25 0.25 92 1009.7
20260504211217 13 233 0.0 4.8 0.00 0.25 0.25 92 1009.9
20260504210004 13 324 3.2 6.4 0.00 0.25 0.25 92 1009.8
20260504205006 13 278 1.6 9.7 0.00 0.25 0.25 92 1009.8
20260504204217 13 39 1.6 6.4 0.00 0.25 0.25 92 1009.8
20260504203003 14 289 4.8 9.7 0.00 0.25 0.25 91 1009.7
20260504202003 14 287 1.6 9.7 0.05 0.25 0.25 91 1009.8
20260504201003 14 127 4.8 6.4 0.08 0.25 0.25 91 1009.8
20260504200217 14 274 4.8 14.5 0.13 0.25 0.25 90 1009.6
20260504195006 14 333 3.2 6.4 0.15 0.25 0.25 90 1009.3
20260504194006 14 262 6.4 11.3 0.15 0.25 0.25 90 1009.6
20260504193006 14 256 6.4 17.7 0.15 0.25 0.25 89 1009.9
20260504192003 14 280 6.4 11.3 0.15 0.23 0.23 89 1009.7
20260504191006 14 280 4.8 11.3 0.10 0.18 0.18 89 1009.6
20260504190003 15 296 4.8 11.3 0.08 0.15 0.15 89 1009.4
20260504185006 15 297 4.8 12.9 0.05 0.13 0.13 89 1009.2
20260504184006 15 289 6.4 11.3 0.08 0.13 0.13 88 1009.1
20260504183006 15 282 6.4 12.9 0.10 0.10 0.10 87 1009.3
20260504182220 15 291 4.8 12.9 0.10 0.10 0.10 85 1009.3
20260504181003 16 298 4.8 8.0 0.08 0.08 0.08 83 1009.3
20260504180003 16 280 4.8 16.1 0.05 0.05 0.05 80 1009.1
20260504175006 17 282 4.8 9.7 0.05 0.05 0.05 79 1008.9
20260504174003 18 278 6.4 12.9 0.05 0.05 0.05 75 1008.7
20260504173220 18 271 3.2 11.3 0.00 0.00 0.00 70 1008.8
20260504172003 20 359 1.6 6.4 0.00 0.00 0.00 63 1008.5
20260504171006 20 355 1.6 4.8 0.00 0.00 0.00 63 1008.7
20260504170220 20 333 1.6 6.4 0.00 0.00 0.00 61 1008.6
20260504160221 21 22 6.4 14.5 0.00 0.00 0.00 57 1008.7
20260504150217 22 21 4.8 17.7 0.00 0.00 0.00 53 1008.9